Volver al catálogo

SELENE

ActivoCienciaSSO
NORAD 69020·PAYLOAD·🇫🇷 France

Lanzado May 3, 2026 desde Vandenberg Space Force Base

Loading…

Próximos Pases (próximas 24 horas)

TLE

ActualizadoSource: Space-Track

Época: Sep 14, 2026, 10:13 UTC

1 69020U 26100AS  26257.42637299  .00003988  00000-0  18452-3 0  9991
2 69020  97.3908 153.5177 0005303  47.4094 312.7588 15.20696597 20368

Sigue SELENE en tiempo real con AllMySat

Download on the App Store